SKC054Q YSSY-UBBB

Flight info

Callsign SKC054Q
Flight time N/A
Altitude 28000
Route WOL DCT AKMIR/N0432F200 W440 PKS/N0490F280 A576 TATUK/N0510F300 A576 ATMAP M635 LAKUN/N0505F320 M635 VTK B338 VMR B469 VPK M751 GOLUD DCT PADET M770 BUBKO/N0496F340 M770 KAKID M875 JHANG A466 DI/N0483F360 J145 REGET N644 LEMOD DCT DOLOS B449 DUKAN L850 ABROL
Aircraft B77L/H-SDE1E2E3FGHIJ2J3J4J5M1RWXY/LB1D1

Departure

Time 2026-04-24 21:57
Airport Sydney Kingsford Smith International Airport (YSSY)

Arrival

Time N/A
Airport Heydar Aliyev International Airport (UBBB)
Time Latitude Longitude Altitude Speed Heading
2026-04-24 21:22 -33.93045 151.16772 34 ft 0 kts 257°
2026-04-24 21:41 -33.93045 151.16773 34 ft 2 kts 257°
2026-04-24 21:42 -33.93039 151.16802 33 ft 4 kts 252°
2026-04-24 21:42 -33.93030 151.16833 32 ft 4 kts 245°
2026-04-24 21:42 -33.93017 151.16862 34 ft 4 kts 236°
2026-04-24 21:42 -33.93000 151.16886 32 ft 4 kts 212°
2026-04-24 21:43 -33.92982 151.16893 33 ft 0 kts 167°
2026-04-24 21:48 -33.92985 151.16894 33 ft 2 kts 167°
2026-04-24 21:48 -33.93025 151.16905 32 ft 11 kts 167°
2026-04-24 21:48 -33.93130 151.16932 34 ft 16 kts 167°
2026-04-24 21:49 -33.93241 151.16965 34 ft 16 kts 160°
2026-04-24 21:49 -33.93332 151.17046 34 ft 16 kts 146°
2026-04-24 21:49 -33.93439 151.17080 34 ft 15 kts 168°
2026-04-24 21:49 -33.93538 151.17107 34 ft 15 kts 168°
2026-04-24 21:50 -33.93637 151.17133 33 ft 15 kts 167°
2026-04-24 21:50 -33.93734 151.17164 33 ft 15 kts 166°
2026-04-24 21:50 -33.93835 151.17190 33 ft 15 kts 172°
2026-04-24 21:50 -33.93945 151.17213 33 ft 17 kts 166°
2026-04-24 21:51 -33.94063 151.17249 33 ft 18 kts 166°
2026-04-24 21:51 -33.94196 151.17284 33 ft 20 kts 167°
2026-04-24 21:51 -33.94333 151.17321 34 ft 20 kts 167°
2026-04-24 21:51 -33.94471 151.17355 34 ft 20 kts 171°
2026-04-24 21:52 -33.94609 151.17388 35 ft 20 kts 167°
2026-04-24 21:52 -33.94747 151.17427 34 ft 21 kts 167°
2026-04-24 21:52 -33.94895 151.17465 34 ft 23 kts 168°
2026-04-24 21:52 -33.95053 151.17503 34 ft 23 kts 168°
2026-04-24 21:53 -33.95208 151.17544 33 ft 23 kts 168°
2026-04-24 21:53 -33.95367 151.17585 34 ft 23 kts 168°
2026-04-24 21:53 -33.95525 151.17627 34 ft 23 kts 168°
2026-04-24 21:53 -33.95682 151.17667 35 ft 23 kts 168°
2026-04-24 21:54 -33.95841 151.17709 34 ft 23 kts 168°
2026-04-24 21:54 -33.95998 151.17750 34 ft 23 kts 168°
2026-04-24 21:54 -33.96156 151.17790 34 ft 23 kts 168°
2026-04-24 21:54 -33.96315 151.17831 34 ft 23 kts 168°
2026-04-24 21:55 -33.96432 151.17909 34 ft 20 kts 106°
2026-04-24 21:55 -33.96389 151.18055 34 ft 20 kts 16°
2026-04-24 21:55 -33.96332 151.18042 34 ft 0 kts 345°
2026-04-24 21:56 -33.96205 151.18007 32 ft 53 kts 348°
2026-04-24 21:56 -33.95603 151.17850 33 ft 124 kts 347°
2026-04-24 21:56 -33.94541 151.17574 37 ft 185 kts 348°
2026-04-24 21:56 -33.93214 151.17240 364 ft 198 kts 348°
2026-04-24 21:57 -33.91873 151.16906 1018 ft 198 kts 347°
2026-04-24 21:57 -33.90506 151.16514 1518 ft 203 kts 337°
2026-04-24 21:57 -33.89402 151.15448 1707 ft 213 kts 298°
2026-04-24 21:57 -33.88712 151.13810 1870 ft 229 kts 298°
2026-04-24 21:58 -33.87885 151.12080 2099 ft 248 kts 301°
2026-04-24 21:58 -33.86957 151.10260 2492 ft 260 kts 302°
2026-04-24 21:58 -33.85988 151.08411 3058 ft 267 kts 303°
2026-04-24 21:58 -33.84973 151.06502 3677 ft 273 kts 304°
2026-04-24 21:59 -33.83931 151.04558 4324 ft 278 kts 304°
2026-04-24 21:59 -33.82908 151.02586 4995 ft 279 kts 296°
2026-04-24 21:59 -33.82471 151.00327 5419 ft 285 kts 270°
2026-04-24 21:59 -33.82486 150.97922 5960 ft 288 kts 272°
2026-04-24 22:00 -33.82411 150.95508 6686 ft 288 kts 273°
2026-04-24 22:00 -33.82313 150.93125 7363 ft 288 kts 273°
2026-04-24 22:00 -33.82259 150.90701 7921 ft 288 kts 263°
2026-04-24 22:00 -33.82959 150.88442 8301 ft 294 kts 230°
2026-04-24 22:01 -33.84581 150.86996 8837 ft 294 kts 197°
2026-04-24 22:01 -33.86574 150.86723 9401 ft 293 kts 172°
2026-04-24 22:01 -33.88548 150.87331 9968 ft 295 kts 157°
2026-04-24 22:01 -33.90324 150.88595 10517 ft 297 kts 140°
2026-04-24 22:02 -33.91891 150.90277 10855 ft 309 kts 137°
2026-04-24 22:02 -33.93516 150.92101 10976 ft 328 kts 137°
2026-04-24 22:02 -33.95260 150.94008 11130 ft 347 kts 138°
2026-04-24 22:02 -33.97162 150.95893 11229 ft 362 kts 149°
2026-04-24 22:03 -33.99531 150.96870 11539 ft 372 kts 174°
2026-04-24 22:03 -34.02123 150.96654 12058 ft 376 kts 193°
2026-04-24 22:03 -34.04664 150.95828 12573 ft 381 kts 194°
2026-04-24 22:03 -34.07240 150.94967 13201 ft 385 kts 194°
2026-04-24 22:04 -34.09825 150.94104 13904 ft 387 kts 194°
2026-04-24 22:04 -34.12436 150.93237 14527 ft 390 kts 194°
2026-04-24 22:04 -34.15072 150.92368 15086 ft 394 kts 194°
2026-04-24 22:04 -34.17724 150.91500 15666 ft 397 kts 194°
2026-04-24 22:05 -34.20375 150.90637 16240 ft 399 kts 194°
2026-04-24 22:05 -34.23077 150.89760 16811 ft 402 kts 194°
2026-04-24 22:05 -34.25800 150.88875 17378 ft 406 kts 193°
2026-04-24 22:05 -34.28534 150.87987 17933 ft 409 kts 194°
2026-04-24 22:06 -34.31296 150.87090 18475 ft 413 kts 193°
2026-04-24 22:06 -34.34080 150.86185 18986 ft 416 kts 193°
2026-04-24 22:06 -34.36884 150.85273 19470 ft 418 kts 193°
2026-04-24 22:06 -34.39706 150.84353 19964 ft 421 kts 193°
2026-04-24 22:07 -34.42543 150.83429 20442 ft 423 kts 193°
2026-04-24 22:07 -34.45281 150.82251 20741 ft 428 kts 208°
2026-04-24 22:07 -34.47618 150.79961 21024 ft 438 kts 229°
2026-04-24 22:07 -34.49222 150.76822 21506 ft 443 kts 246°
2026-04-24 22:08 -34.49998 150.73201 21974 ft 447 kts 264°
2026-04-24 22:08 -34.49833 150.69426 22361 ft 453 kts 282°
2026-04-24 22:08 -34.48721 150.65838 22721 ft 457 kts 301°
2026-04-24 22:08 -34.46938 150.62634 23026 ft 459 kts 305°
2026-04-24 22:09 -34.45094 150.59433 23368 ft 464 kts 305°
2026-04-24 22:09 -34.43247 150.56200 23834 ft 467 kts 304°
2026-04-24 22:09 -34.41435 150.52993 24255 ft 469 kts 304°
2026-04-24 22:09 -34.39592 150.49700 24625 ft 472 kts 304°
2026-04-24 22:10 -34.37743 150.46373 24936 ft 476 kts 303°
2026-04-24 22:10 -34.35906 150.43060 25272 ft 479 kts 303°
2026-04-24 22:10 -34.34044 150.39700 25656 ft 481 kts 303°
2026-04-24 22:10 -34.32194 150.36360 26004 ft 483 kts 303°
2026-04-24 22:11 -34.30334 150.33010 26347 ft 486 kts 303°
2026-04-24 22:11 -34.28420 150.29567 26698 ft 488 kts 303°
2026-04-24 22:11 -34.26514 150.26142 27034 ft 491 kts 303°
2026-04-24 22:11 -34.24600 150.22706 27327 ft 494 kts 303°
2026-04-24 22:12 -34.22675 150.19253 27659 ft 497 kts 303°
2026-04-24 22:12 -34.20737 150.15778 28009 ft 498 kts 303°
2026-04-24 22:12 -34.18795 150.12301 28371 ft 500 kts 303°
2026-04-24 22:12 -34.16846 150.08808 28677 ft 502 kts 302°
2026-04-24 22:13 -34.14906 150.05287 28973 ft 505 kts 302°
2026-04-24 22:13 -34.12958 150.01730 29262 ft 508 kts 302°
2026-04-24 22:13 -34.11032 149.98208 29539 ft 510 kts 302°
2026-04-24 22:13 -34.09069 149.94621 29817 ft 513 kts 302°
2026-04-24 22:14 -34.07095 149.91022 30087 ft 515 kts 302°
2026-04-24 22:14 -34.05109 149.87411 30350 ft 516 kts 302°
2026-04-24 22:14 -34.03113 149.83788 30498 ft 519 kts 302°
2026-04-24 22:15 -33.99122 149.76560 30521 ft 515 kts 302°
2026-04-24 22:15 -33.95188 149.69448 30540 ft 513 kts 302°
2026-04-24 22:16 -33.91220 149.62283 30535 ft 514 kts 302°
2026-04-24 22:16 -33.87241 149.55114 30536 ft 514 kts 302°
2026-04-24 22:17 -33.83268 149.47957 30528 ft 515 kts 302°
2026-04-24 22:17 -33.79302 149.40821 30529 ft 515 kts 302°
2026-04-24 22:18 -33.75310 149.33649 30519 ft 516 kts 302°
2026-04-24 22:18 -33.71327 149.26511 30518 ft 516 kts 302°
2026-04-24 22:19 -33.67323 149.19349 30511 ft 516 kts 302°
2026-04-24 22:19 -33.63318 149.12199 30509 ft 515 kts 302°
2026-04-24 22:20 -33.59337 149.05106 30511 ft 515 kts 302°
2026-04-24 22:20 -33.55331 148.97983 30503 ft 514 kts 302°
2026-04-24 22:21 -33.51325 148.90872 30500 ft 513 kts 302°
2026-04-24 22:21 -33.47989 148.84963 30498 ft 513 kts 302°
2026-04-24 22:22 -33.43989 148.77888 30497 ft 513 kts 302°
2026-04-24 22:22 -33.39975 148.70802 30496 ft 513 kts 302°
2026-04-24 22:23 -33.35988 148.63777 30492 ft 513 kts 302°
2026-04-24 22:23 -33.31978 148.56725 30491 ft 512 kts 302°
2026-04-24 22:24 -33.27963 148.49679 30492 ft 512 kts 302°
2026-04-24 22:24 -33.23965 148.42674 30483 ft 511 kts 302°
2026-04-24 22:25 -33.19950 148.35653 30480 ft 511 kts 302°
2026-04-24 22:25 -33.15940 148.28652 30487 ft 510 kts 302°
2026-04-24 22:26 -33.11963 148.21695 30481 ft 509 kts 302°